Wind_Speed
34 28 30 31 32 35 34 33 32 32 16 11 11 18 20 30 33 23 28 24 20 22 28 29 22 29 30 34 28 24 20 18 13 5 3 3 1 3 5 5 3 1 2 2
30 31 28 30 29 29 33 30 31 23 18 27 21 23 17 37 44 41 41 31 25 27 23 23 23 32 30 32 28 27 23 18 15 16 13 7 3 3 3 5 6 7 6 7
31 31 29 21 22 22 26 23 26 21 31 25 23 21 34 52 54 44 43 38 30 27 20 26 26 31 30 32 27 25 26 21 21 17 16 12 9 8 6 6 9 11 13 16
34 30 23 26 19 18 19 21 24 23 24 33 28 35 19 24 33 40 39 34 34 32 23 30 27 33 31 31 29 26 23 25 24 19 18 17 17 13 14 14 13 13 18 22
32 32 31 26 17 18 16 20 17 18 20 24 27 19 41 46 51 52 45 38 35 34 30 33 31 35 33 31 33 31 28 27 27 25 24 26 24 24 23 24 23 22 25 26
33 33 31 24 16 15 14 15 8 17 32 32 31 26 42 52 46 44 40 38 37 33 34 34 38 35 35 36 35 34 30 34 32 30 30 31 32 33 31 32 32 30 32 32
39 29 25 15 16 16 16 20 24 30 32 30 30 18 36 37 40 44 39 37 37 37 42 40 38 38 39 41 39 35 34 33 34 32 34 35 34 36 36 36 37 40 39 39
43 33 30 26 22 24 26 27 31 32 31 33 35 42 41 39 46 45 36 39 43 43 40 40 43 43 43 42 40 38 40 39 41 42 41 36 35 39 40 42 45 44 46 45
44 35 31 27 27 29 28 27 32 30 29 33 34 39 40 44 41 36 34 42 45 43 42 45 47 46 45 44 43 44 45 46 45 43 45 44 42 45 46 48 50 49 49 51
38 37 31 33 33 36 30 27 30 29 28 31 31 34 32 34 32 29 32 39 41 42 41 47 46 49 48 47 45 45 47 49 49 51 49 48 51 53 54 54 54 54 55 57
45 42 30 35 38 38 37 34 23 23 24 25 29 28 26 26 24 25 31 37 39 37 37 41 49 50 49 50 50 50 50 51 52 54 55 55 54 56 57 57 58 59 61 65
49 42 38 44 45 44 41 38 35 34 27 26 29 28 28 27 25 26 29 36 41 40 37 36 45 48 53 54 52 52 53 54 54 56 58 59 59 60 62 64 66 68 70 70
54 48 51 46 48 46 42 41 41 39 36 35 33 30 31 30 30 29 33 36 40 43 43 43 43 45 49 51 53 55 56 55 56 56 58 61 63 65 67 68 70 71 71 71
60 62 61 56 51 49 48 45 45 44 40 39 40 39 35 35 35 34 33 36 40 43 45 46 47 47 45 47 49 51 53 55 58 59 60 61 64 66 66 66 69 70 72 73
67 68 67 64 60 59 57 55 52 50 49 48 47 46 44 43 40 40 41 39 38 42 46 48 51 53 53 53 54 55 55 55 55 57 59 62 64 66 67 68 73 74 74 76
74 74 74 74 68 65 62 62 57 54 54 55 54 53 50 50 51 49 48 48 47 45 44 47 52 55 55 57 58 59 60 59 61 64 63 63 64 65 68 70 72 74 77 81
79 80 81 79 75 71 72 68 66 62 61 63 59 59 57 59 57 58 58 56 53 53 54 55 54 54 56 59 61 62 63 65 65 67 69 70 71 74 75 77 79 81 83 85
85 86 85 83 82 80 76 75 72 69 67 68 62 63 66 64 63 64 64 64 64 63 62 60 60 63 65 67 68 69 71 72 72 73 76 79 80 81 82 84 85 87 89 92
90 89 89 88 87 85 79 81 77 76 74 75 74 73 74 69 67 70 70 71 71 71 70 69 67 69 71 72 72 74 74 73 75 77 80 82 85 86 88 90 92 93 93 96
90 92 93 92 91 89 87 84 83 81 78 78 79 81 83 80 77 79 78 77 75 75 77 75 74 75 76 77 77 77 80 82 82 83 86 88 90 92 93 94 97 99 99 99
87 88 89 90 93 94 92 91 85 85 80 79 83 86 87 86 82 81 81 80 81 80 81 81 77 78 81 81 83 82 83 83 85 88 90 93 96 97 99 98 99 100 100 101
75 79 83 86 87 86 85 84 83 82 82 83 80 84 88 97 91 86 85 85 83 82 82 83 84 84 85 87 88 88 89 90 91 92 94 96 96 96 98 99 100 97 93 86
57 60 62 66 67 66 66 68 70 74 78 81 80 84 89 89 88 86 84 85 85 86 86 86 86 87 88 87 88 89 90 90 92 93 95 96 96 96 94 89 86 81 79 79
36 38 41 42 41 42 46 37 45 48 57 59 66 81 85 83 84 83 84 81 80 82 81 82 84 85 85 86 87 89 91 93 93 93 92 89 84 81 77 77 77 76 74 75
19 22 24 24 28 34 42 61 60 53 57 63 61 70 79 82 82 84 83 82 82 83 84 82 81 84 85 86 84 83 83 83 79 76 74 72 71 71 72 73 72 73 73 77
7 10 12 15 20 26 34 47 57 59 62 61 63 62 68 73 70 67 65 65 68 72 75 76 78 74 71 72 70 67 65 64 63 64 65 65 66 67 68 71 73 75 75 78
8 5 7 7 10 14 20 26 31 36 38 42 43 43 44 46 49 53 53 55 57 59 60 60 61 60 58 56 55 55 56 57 57 58 59 63 66 69 71 72 73 75 77 79
Wind_Direction
247 241 247 249 257 263 262 258 256 253 248 197 193 227 232 274 270 301 297 267 242 218 196 197 199 204 212 218 226 232 235 239 236 210 215 279 272 342 356 356 1 33 95 96
236 245 242 253 260 265 260 256 254 246 194 159 176 183 224 270 267 266 284 273 243 222 220 223 219 218 213 219 230 234 232 225 214 244 269 213 270 296 307 307 295 293 296 286
234 243 250 253 258 257 256 245 244 223 200 180 168 137 229 250 263 273 282 269 237 227 225 222 222 221 224 223 229 229 228 221 222 224 229 225 245 273 291 311 298 292 299 303
232 242 241 247 260 267 248 233 229 208 196 198 189 204 230 248 257 266 285 249 231 233 230 223 223 221 225 227 232 231 227 224 223 223 235 237 240 259 275 282 288 300 294 296
233 225 226 246 235 255 248 241 238 221 189 195 223 234 275 280 280 279 276 239 228 232 232 225 226 227 229 226 228 234 238 231 236 237 242 246 250 256 272 279 281 288 297 295
227 215 220 229 235 229 253 243 239 207 171 186 195 226 257 261 269 276 253 230 230 228 231 227 229 228 230 235 236 234 240 241 243 246 252 252 255 261 265 274 279 290 297 296
216 203 205 203 215 208 276 264 186 206 181 192 207 208 251 249 266 272 239 229 228 228 227 233 236 234 236 238 239 239 246 251 247 251 258 265 265 266 275 277 281 288 294 295
217 213 217 216 216 229 213 229 207 215 222 233 245 251 254 254 272 267 230 231 232 229 225 229 233 231 233 234 236 240 245 247 249 250 250 254 271 278 278 280 281 285 290 291
219 216 220 225 228 242 240 229 228 223 235 237 236 244 258 265 262 257 236 228 228 231 232 229 232 232 232 236 240 244 247 249 253 258 258 260 259 266 273 276 279 282 286 288
225 225 224 232 231 237 239 231 230 238 244 248 241 242 259 258 259 254 242 232 229 231 236 232 235 237 238 238 241 244 251 258 261 263 261 261 262 266 270 273 278 283 284 284
230 226 223 265 245 244 245 249 244 230 240 256 258 261 268 266 265 254 240 232 230 235 241 238 237 238 242 245 245 249 251 254 258 261 265 266 267 268 271 274 277 278 278 281
236 230 225 230 238 241 241 244 247 255 248 246 257 270 274 272 264 257 245 237 233 236 240 240 242 242 244 248 249 250 254 258 259 262 265 268 270 272 272 274 277 278 279 281
240 235 234 231 239 244 243 247 248 250 254 259 258 256 263 272 271 258 252 246 244 241 243 248 251 250 248 250 252 256 259 261 261 262 264 264 267 270 272 275 277 279 281 283
239 240 241 240 241 242 245 245 250 253 256 258 262 264 260 259 264 269 265 256 252 251 249 248 251 255 258 256 258 262 265 266 268 269 271 272 274 275 275 278 280 282 282 284
242 244 247 246 244 246 245 247 247 252 258 260 261 261 263 265 259 259 264 265 263 258 256 256 257 259 261 262 263 265 266 269 272 274 276 276 277 279 280 282 285 286 286 287
245 247 248 249 246 248 249 251 250 252 255 256 256 259 260 262 263 262 259 262 265 264 261 260 259 261 264 266 269 271 272 273 275 278 279 281 282 281 281 282 284 286 288 291
244 245 248 249 248 247 248 249 250 251 255 258 258 259 261 262 263 263 264 264 263 263 264 265 265 265 265 264 268 270 271 274 276 278 279 281 283 283 284 286 287 288 289 289
245 248 248 248 249 248 247 249 250 251 252 254 256 259 259 258 261 264 265 266 268 268 267 267 267 269 270 270 271 272 273 276 278 280 281 282 284 286 287 288 289 290 291 293
246 247 248 249 249 249 249 250 250 251 252 254 255 256 259 260 262 264 265 266 267 268 269 269 272 273 272 274 275 277 279 280 280 281 282 284 284 286 288 288 290 292 292 294
248 248 248 249 249 248 248 249 250 250 251 253 258 259 259 260 261 262 263 265 267 268 269 270 272 274 274 275 276 278 279 279 280 282 283 285 285 287 289 290 291 292 294 295
249 249 249 250 250 251 250 251 250 250 251 251 255 259 260 260 257 258 263 264 265 267 269 271 272 271 272 274 276 278 279 281 281 282 283 284 286 288 290 291 292 294 296 296
251 252 253 253 252 252 251 252 252 252 253 252 253 257 259 259 257 258 260 262 264 266 268 270 272 274 275 276 279 280 281 282 283 285 287 288 289 289 291 292 294 295 296 296
256 254 253 253 253 251 250 250 249 249 248 248 248 250 250 257 260 260 261 261 263 264 266 268 270 272 274 277 279 281 283 284 285 286 287 289 290 291 292 293 293 294 294 295
256 255 254 253 250 243 234 222 240 235 236 231 233 239 250 252 255 258 260 261 262 264 265 266 268 271 274 277 278 280 282 284 286 287 289 291 290 290 292 292 294 295 295 294
255 251 247 239 231 229 215 209 217 226 228 234 237 240 243 246 249 251 254 258 261 264 266 270 271 272 275 279 281 282 283 285 287 287 288 289 290 291 294 294 295 296 298 298
239 236 230 222 217 215 212 214 222 228 229 235 240 246 246 246 249 255 260 261 260 262 266 269 272 277 277 278 281 282 283 284 286 288 291 293 294 295 296 297 297 297 298 298
82 97 124 147 182 199 208 212 216 224 229 234 239 244 248 246 246 251 255 257 259 263 267 271 275 278 281 283 283 285 288 289 291 293 293 294 295 296 297 298 299 299 300 300
Height
10809 10818 10819 10823 10825 10827 10830 10834 10837 10841 10853 10856 10852 10850 10849 10849 10846 10846 10855 10858 10853 10853 10857 10862 10867 10872 10873 10877 10879 10879 10877 10878 10881 10880 10879 10878 10878 10877 10877 10875 10874 10874 10872 10871
10806 10807 10813 10816 10819 10819 10821 10826 10830 10838 10848 10844 10843 10839 10844 10845 10837 10841 10850 10856 10853 10851 10854 10857 10860 10861 10864 10869 10870 10872 10872 10874 10875 10876 10875 10874 10874 10873 10873 10873 10872 10872 10872 10871
10799 10801 10806 10812 10811 10811 10814 10818 10822 10831 10833 10840 10841 10846 10844 10835 10836 10844 10845 10849 10849 10849 10850 10852 10855 10856 10859 10861 10863 10866 10867 10869 10869 10869 10869 10870 10869 10869 10868 10868 10868 10868 10868 10868
10790 10795 10802 10801 10806 10806 10808 10811 10814 10822 10824 10826 10832 10831 10828 10830 10834 10838 10840 10838 10841 10845 10847 10848 10850 10852 10853 10856 10858 10860 10861 10863 10863 10864 10865 10863 10863 10863 10863 10864 10863 10862 10862 10861
10784 10789 10794 10799 10801 10803 10807 10808 10816 10815 10816 10817 10824 10841 10830 10822 10826 10829 10832 10830 10835 10838 10842 10844 10845 10846 10848 10849 10851 10853 10856 10856 10857 10858 10858 10858 10858 10857 10857 10857 10856 10856 10855 10854
10776 10782 10788 10793 10797 10794 10800 10807 10817 10813 10808 10811 10819 10836 10823 10814 10814 10821 10824 10821 10825 10833 10835 10837 10838 10839 10842 10843 10845 10846 10847 10848 10850 10851 10851 10852 10851 10851 10851 10850 10849 10848 10847 10846
10767 10775 10782 10791 10786 10784 10790 10805 10807 10810 10805 10804 10803 10802 10805 10805 10809 10813 10816 10811 10816 10821 10825 10829 10829 10831 10833 10835 10837 10839 10840 10841 10842 10843 10844 10844 10844 10844 10843 10842 10841 10839 10838 10836
10759 10767 10776 10784 10783 10781 10785 10791 10796 10802 10800 10795 10792 10792 10793 10800 10800 10802 10804 10801 10803 10812 10817 10821 10822 10823 10825 10826 10828 10830 10831 10832 10833 10833 10833 10833 10835 10835 10834 10832 10831 10830 10827 10825
10751 10760 10769 10777 10781 10778 10777 10783 10789 10791 10790 10789 10789 10789 10790 10792 10791 10790 10792 10793 10797 10804 10808 10809 10812 10814 10817 10817 10819 10821 10822 10822 10822 10823 10824 10824 10824 10824 10823 10821 10819 10818 10816 10813
10747 10754 10765 10768 10773 10772 10774 10778 10780 10781 10784 10785 10785 10786 10785 10784 10784 10782 10783 10786 10792 10796 10798 10801 10803 10805 10807 10809 10810 10812 10813 10812 10812 10812 10813 10812 10812 10811 10810 10809 10807 10804 10802 10800
10736 10746 10766 10778 10766 10762 10763 10765 10769 10773 10776 10779 10778 10778 10777 10776 10776 10776 10778 10781 10785 10788 10791 10791 10792 10793 10796 10799 10800 10801 10802 10802 10802 10802 10801 10800 10799 10798 10797 10795 10793 10791 10788 10784
10727 10739 10748 10750 10749 10749 10753 10756 10760 10762 10766 10769 10770 10770 10769 10769 10770 10771 10773 10775 10777 10779 10780 10780 10782 10784 10786 10787 10788 10789 10791 10792 10791 10790 10789 10788 10786 10785 10783 10780 10778 10775 10771 10767
10716 10726 10727 10731 10735 10742 10747 10750 10751 10754 10757 10759 10761 10763 10764 10763 10764 10765 10765 10767 10768 10770 10771 10772 10772 10773 10774 10776 10777 10778 10779 10779 10778 10777 10775 10774 10772 10770 10767 10764 10760 10757 10753 10748
10703 10704 10708 10718 10726 10728 10733 10739 10744 10745 10749 10751 10751 10753 10756 10757 10757 10757 10759 10759 10759 10760 10761 10762 10763 10763 10764 10765 10765 10765 10765 10764 10763 10761 10760 10758 10755 10753 10751 10746 10741 10738 10732 10729
10686 10690 10696 10703 10710 10715 10719 10724 10731 10735 10736 10739 10741 10743 10745 10746 10748 10748 10748 10748 10749 10750 10751 10752 10752 10752 10753 10753 10753 10752 10751 10750 10748 10746 10744 10741 10738 10736 10734 10731 10722 10717 10714 10709
10671 10675 10677 10681 10693 10700 10706 10709 10716 10720 10720 10722 10725 10726 10731 10732 10731 10734 10736 10737 10737 10739 10741 10741 10740 10740 10740 10740 10739 10737 10736 10734 10733 10731 10726 10723 10721 10717 10714 10711 10707 10701 10693 10685
10648 10651 10656 10666 10676 10683 10685 10692 10696 10705 10707 10706 10710 10712 10717 10714 10716 10717 10719 10721 10725 10726 10726 10726 10726 10727 10726 10725 10723 10721 10720 10718 10715 10712 10708 10705 10701 10697 10693 10689 10684 10680 10674 10669
10630 10633 10638 10645 10651 10660 10671 10674 10680 10688 10690 10688 10693 10693 10695 10698 10700 10701 10702 10704 10707 10709 10710 10711 10711 10710 10709 10707 10706 10703 10700 10699 10698 10693 10688 10684 10680 10676 10671 10665 10660 10655 10649 10641
10608 10612 10617 10623 10630 10637 10650 10652 10663 10667 10671 10671 10674 10676 10677 10681 10684 10683 10685 10686 10688 10689 10690 10692 10694 10692 10689 10688 10687 10684 10681 10680 10676 10673 10666 10662 10656 10653 10647 10640 10635 10629 10624 10617
10581 10588 10594 10599 10604 10614 10623 10633 10639 10646 10655 10657 10655 10655 10655 10661 10666 10664 10667 10667 10669 10670 10670 10673 10674 10671 10668 10667 10666 10664 10659 10657 10655 10650 10641 10638 10633 10629 10622 10616 10609 10601 10597 10589
10557 10561 10566 10571 10578 10587 10601 10608 10620 10625 10635 10642 10638 10632 10632 10635 10641 10645 10647 10649 10648 10650 10650 10651 10653 10648 10645 10646 10643 10641 10638 10636 10632 10626 10621 10615 10609 10603 10596 10590 10584 10576 10567 10555
10532 10537 10540 10545 10555 10565 10577 10587 10598 10610 10617 10621 10626 10610 10606 10607 10616 10625 10627 10629 10631 10631 10630 10628 10625 10626 10624 10622 10621 10618 10616 10611 10606 10602 10595 10590 10586 10578 10572 10564 10554 10547 10541 10532
10514 10516 10518 10522 10530 10542 10556 10566 10575 10582 10588 10589 10595 10592 10589 10591 10597 10604 10607 10606 10610 10609 10608 10607 10606 10604 10603 10603 10599 10595 10590 10587 10584 10578 10572 10566 10560 10553 10546 10538 10530 10523 10515 10508
10499 10500 10502 10507 10515 10522 10527 10539 10532 10544 10552 10558 10565 10569 10571 10578 10582 10582 10583 10588 10588 10585 10587 10586 10585 10585 10585 10583 10578 10575 10571 10565 10559 10554 10548 10542 10535 10527 10521 10512 10508 10501 10495 10485
10489 10489 10491 10495 10497 10502 10511 10510 10518 10519 10525 10534 10544 10551 10553 10556 10558 10561 10565 10568 10568 10567 10565 10568 10567 10565 10565 10563 10559 10554 10548 10543 10537 10532 10526 10520 10512 10507 10500 10491 10486 10477 10472 10460
10485 10484 10485 10487 10489 10495 10503 10507 10509 10514 10521 10527 10533 10536 10537 10540 10545 10550 10554 10555 10552 10548 10547 10548 10547 10549 10546 10541 10538 10535 10529 10524 10519 10514 10508 10501 10493 10486 10480 10472 10466 10458 10452 10440
10485 10484 10483 10485 10487 10490 10494 10501 10507 10512 10517 10519 10522 10524 10526 10531 10534 10534 10535 10536 10536 10536 10535 10533 10531 10529 10527 10524 10520 10517 10511 10507 10503 10498 10491 10483 10477 10469 10462 10453 10445 10435 10428 10420